QPF
0.00 0.00 0.00 0.00 0.00 0.00 0.00 0.00 0.00 0.00 0.00 0.00 0.00 0.00 0.00 0.00 0.00 0.00 0.00 0.00 0.00 0.00 0.00 0.00 0.00 0.00 0.00 0.00 0.00 0.00 0.00 0.00 0.00 0.00 0.00 0.00 0.00 0.00 0.00 0.00 0.00 0.00 0.00 0.00 0.00
0.00 0.00 0.01 0.00 0.00 0.00 0.00 0.00 0.00 0.00 0.00 0.00 0.00 0.00 0.00 0.00 0.00 0.00 0.00 0.00 0.00 0.00 0.00 0.00 0.00 0.00 0.00 0.00 0.00 0.00 0.00 0.00 0.00 0.00 0.00 0.00 0.00 0.00 0.00 0.00 0.00 0.00 0.00 0.00 0.00
0.00 0.00 0.00 0.01 0.00 0.00 0.00 0.00 0.00 0.00 0.00 0.00 0.00 0.00 0.00 0.00 0.00 0.00 0.00 0.00 0.00 0.00 0.00 0.00 0.00 0.00 0.00 0.00 0.00 0.00 0.00 0.00 0.00 0.00 0.00 0.00 0.00 0.00 0.00 0.00 0.00 0.00 0.00 0.00 0.00
0.00 0.00 0.00 0.01 0.01 0.00 0.00 0.00 0.00 0.00 0.00 0.00 0.00 0.00 0.00 0.00 0.00 0.00 0.00 0.00 0.00 0.00 0.00 0.01 0.01 0.00 0.00 0.00 0.00 0.00 0.00 0.00 0.00 0.00 0.00 0.00 0.00 0.00 0.00 0.00 0.00 0.00 0.00 0.00 0.00
0.00 0.00 0.00 0.01 0.02 0.01 0.00 0.00 0.00 0.00 0.00 0.00 0.00 0.00 0.00 0.00 0.00 0.00 0.00 0.00 0.00 0.00 0.00 0.00 0.01 0.01 0.00 0.00 0.00 0.00 0.00 0.00 0.00 0.00 0.00 0.00 0.00 0.00 0.00 0.00 0.00 0.00 0.00 0.00 0.00
0.00 0.01 0.01 0.00 0.00 0.00 0.00 0.00 0.00 0.00 0.00 0.00 0.00 0.00 0.00 0.00 0.00 0.00 0.00 0.00 0.00 0.00 0.00 0.00 0.00 0.01 0.00 0.00 0.00 0.00 0.00 0.00 0.00 0.00 0.00 0.00 0.00 0.00 0.00 0.00 0.00 0.00 0.00 0.00 0.00
0.01 0.01 0.00 0.00 0.00 0.00 0.00 0.00 0.00 0.00 0.00 0.00 0.00 0.00 0.00 0.00 0.00 0.00 0.00 0.00 0.00 0.00 0.00 0.00 0.00 0.01 0.01 0.00 0.00 0.00 0.00 0.00 0.00 0.00 0.00 0.00 0.00 0.00 0.00 0.00 0.00 0.00 0.00 0.00 0.00
0.01 0.00 0.00 0.00 0.00 0.00 0.00 0.00 0.00 0.00 0.00 0.00 0.00 0.00 0.00 0.00 0.00 0.00 0.00 0.00 0.00 0.00 0.00 0.00 0.01 0.01 0.00 0.00 0.00 0.00 0.00 0.00 0.00 0.00 0.00 0.00 0.00 0.00 0.00 0.00 0.00 0.00 0.00 0.00 0.00
0.00 0.00 0.00 0.00 0.00 0.00 0.00 0.00 0.00 0.00 0.00 0.00 0.00 0.00 0.00 0.00 0.00 0.00 0.00 0.00 0.00 0.00 0.00 0.00 0.00 0.00 0.00 0.00 0.00 0.00 0.00 0.00 0.00 0.00 0.00 0.00 0.00 0.00 0.00 0.00 0.00 0.00 0.00 0.00 0.00
0.00 0.00 0.00 0.00 0.00 0.00 0.00 0.00 0.00 0.00 0.00 0.00 0.00 0.00 0.00 0.00 0.00 0.00 0.00 0.00 0.00 0.00 0.00 0.00 0.00 0.00 0.00 0.00 0.01 0.00 0.00 0.00 0.00 0.00 0.00 0.00 0.00 0.00 0.00 0.00 0.00 0.00 0.00 0.00 0.00
0.00 0.00 0.00 0.00 0.00 0.00 0.00 0.00 0.00 0.00 0.00 0.00 0.00 0.00 0.00 0.00 0.00 0.00 0.00 0.00 0.00 0.00 0.00 0.00 0.00 0.01 0.02 0.01 0.00 0.00 0.00 0.00 0.00 0.00 0.00 0.00 0.00 0.00 0.00 0.00 0.00 0.00 0.00 0.00 0.00
0.00 0.00 0.00 0.00 0.00 0.00 0.00 0.00 0.00 0.00 0.00 0.00 0.00 0.00 0.00 0.00 0.00 0.00 0.00 0.00 0.00 0.00 0.00 0.00 0.00 0.00 0.00 0.00 0.00 0.00 0.00 0.00 0.00 0.00 0.00 0.00 0.00 0.00 0.00 0.00 0.00 0.00 0.00 0.00 0.00
0.00 0.00 0.00 0.00 0.00 0.00 0.00 0.00 0.00 0.00 0.00 0.00 0.00 0.00 0.00 0.00 0.00 0.00 0.00 0.00 0.00 0.00 0.00 0.00 0.00 0.00 0.00 0.00 0.00 0.00 0.00 0.00 0.00 0.00 0.00 0.00 0.00 0.00 0.00 0.00 0.00 0.00 0.00 0.00 0.00
0.00 0.00 0.00 0.00 0.00 0.00 0.01 0.01 0.00 0.00 0.00 0.00 0.00 0.00 0.00 0.00 0.00 0.00 0.00 0.00 0.00 0.00 0.00 0.00 0.00 0.00 0.00 0.00 0.00 0.00 0.00 0.00 0.00 0.00 0.00 0.00 0.00 0.00 0.00 0.00 0.00 0.00 0.00 0.00 0.00
0.00 0.00 0.00 0.00 0.00 0.01 0.01 0.00 0.00 0.01 0.01 0.00 0.00 0.00 0.00 0.00 0.00 0.00 0.00 0.00 0.00 0.00 0.00 0.00 0.00 0.00 0.00 0.00 0.00 0.00 0.00 0.00 0.00 0.00 0.00 0.00 0.00 0.00 0.00 0.00 0.00 0.00 0.00 0.00 0.00
0.00 0.00 0.00 0.00 0.01 0.00 0.00 0.00 0.02 0.02 0.01 0.00 0.00 0.00 0.00 0.00 0.00 0.00 0.00 0.00 0.00 0.00 0.00 0.00 0.00 0.00 0.00 0.00 0.00 0.00 0.00 0.00 0.00 0.00 0.00 0.00 0.00 0.00 0.00 0.00 0.00 0.00 0.00 0.00 0.00
0.00 0.00 0.00 0.00 0.00 0.00 0.00 0.01 0.01 0.01 0.00 0.00 0.00 0.00 0.00 0.00 0.00 0.00 0.00 0.00 0.00 0.00 0.00 0.00 0.00 0.00 0.00 0.00 0.00 0.00 0.00 0.00 0.00 0.00 0.00 0.00 0.00 0.00 0.00 0.00 0.00 0.00 0.00 0.00 0.00
0.00 0.00 0.00 0.00 0.00 0.00 0.00 0.00 0.00 0.00 0.00 0.00 0.00 0.00 0.00 0.00 0.00 0.00 0.00 0.00 0.00 0.00 0.00 0.00 0.00 0.00 0.00 0.00 0.00 0.00 0.00 0.00 0.00 0.00 0.00 0.00 0.00 0.00 0.00 0.00 0.00 0.00 0.00 0.00 0.00
0.00 0.00 0.00 0.00 0.00 0.00 0.00 0.00 0.00 0.00 0.00 0.00 0.00 0.00 0.00 0.00 0.00 0.00 0.00 0.00 0.00 0.00 0.00 0.00 0.00 0.00 0.00 0.00 0.00 0.00 0.00 0.00 0.00 0.00 0.00 0.00 0.00 0.00 0.00 0.00 0.00 0.00 0.00 0.00 0.00
0.00 0.00 0.00 0.00 0.00 0.00 0.00 0.00 0.00 0.00 0.00 0.00 0.00 0.00 0.00 0.00 0.00 0.00 0.00 0.00 0.00 0.00 0.00 0.00 0.00 0.00 0.00 0.00 0.00 0.00 0.00 0.00 0.00 0.00 0.00 0.00 0.00 0.00 0.00 0.00 0.00 0.00 0.00 0.00 0.00
0.00 0.00 0.00 0.00 0.00 0.00 0.00 0.00 0.00 0.00 0.00 0.00 0.00 0.00 0.00 0.00 0.00 0.00 0.00 0.00 0.00 0.00 0.00 0.00 0.00 0.00 0.00 0.00 0.00 0.00 0.00 0.00 0.00 0.00 0.00 0.00 0.00 0.00 0.00 0.00 0.00 0.00 0.00 0.00 0.00
0.00 0.00 0.00 0.00 0.00 0.00 0.00 0.00 0.00 0.00 0.00 0.00 0.00 0.00 0.00 0.00 0.00 0.00 0.00 0.00 0.00 0.00 0.00 0.00 0.00 0.00 0.00 0.00 0.00 0.00 0.00 0.00 0.00 0.00 0.00 0.00 0.00 0.00 0.00 0.00 0.00 0.00 0.00 0.00 0.00
0.00 0.00 0.00 0.00 0.00 0.00 0.00 0.00 0.00 0.00 0.00 0.00 0.00 0.00 0.00 0.00 0.00 0.00 0.00 0.00 0.00 0.00 0.00 0.00 0.00 0.00 0.00 0.00 0.00 0.00 0.00 0.00 0.00 0.00 0.00 0.00 0.00 0.00 0.00 0.00 0.00 0.00 0.00 0.00 0.00
0.00 0.00 0.00 0.00 0.00 0.00 0.00 0.00 0.00 0.00 0.00 0.00 0.00 0.00 0.00 0.00 0.00 0.00 0.00 0.00 0.00 0.00 0.00 0.00 0.00 0.00 0.00 0.00 0.00 0.00 0.00 0.00 0.00 0.00 0.00 0.00 0.00 0.00 0.00 0.00 0.00 0.00 0.00 0.00 0.00
0.00 0.00 0.00 0.00 0.00 0.00 0.00 0.00 0.00 0.00 0.00 0.00 0.00 0.00 0.00 0.00 0.00 0.00 0.00 0.00 0.00 0.00 0.00 0.00 0.00 0.00 0.00 0.00 0.00 0.00 0.00 0.00 0.00 0.00 0.00 0.00 0.00 0.00 0.00 0.00 0.00 0.00 0.00 0.00 0.00
0.00 0.00 0.00 0.00 0.00 0.00 0.00 0.00 0.00 0.00 0.00 0.00 0.00 0.00 0.00 0.00 0.00 0.00 0.00 0.00 0.00 0.00 0.00 0.00 0.00 0.00 0.00 0.00 0.00 0.00 0.00 0.00 0.00 0.00 0.00 0.00 0.00 0.00 0.00 0.00 0.00 0.00 0.00 0.00 0.00
0.00 0.00 0.00 0.00 0.00 0.00 0.00 0.00 0.00 0.00 0.00 0.00 0.00 0.00 0.00 0.00 0.00 0.00 0.00 0.00 0.00 0.00 0.00 0.00 0.00 0.00 0.00 0.00 0.00 0.00 0.00 0.00 0.00 0.00 0.00 0.00 0.00 0.00 0.00 0.00 0.00 0.00 0.00 0.00 0.00
MSLP
1019.30 1019.18 1019.08 1019.08 1019.07 1018.93 1018.69 1018.52 1018.47 1018.51 1018.50 1018.40 1018.18 1017.93 1017.57 1017.16 1016.50 1015.94 1014.98 1013.00 1012.63 1012.35 1012.33 1012.10 1011.88 1011.94 1011.90 1012.16 1012.47 1012.73 1013.50 1014.16 1014.09 1014.37 1014.16 1014.68 1015.10 1015.89 1016.32 1016.52 1016.94 1017.34 1017.36 1017.42 1017.70
1019.30 1019.17 1019.02 1018.97 1018.99 1018.94 1018.80 1018.68 1018.60 1018.57 1018.48 1018.31 1018.09 1017.86 1017.52 1017.11 1016.51 1014.90 1012.61 1012.28 1012.34 1012.21 1012.36 1012.33 1012.30 1012.22 1012.15 1012.23 1012.52 1012.70 1013.33 1013.38 1013.46 1013.65 1013.90 1014.55 1014.99 1015.73 1016.38 1016.73 1017.14 1017.48 1017.81 1017.85 1017.96
1019.21 1019.07 1018.90 1018.77 1018.78 1018.78 1018.75 1018.72 1018.61 1018.53 1018.42 1018.23 1018.03 1017.80 1017.50 1017.18 1016.21 1012.65 1011.13 1011.64 1012.04 1012.04 1012.33 1012.56 1012.44 1012.52 1012.44 1012.23 1012.41 1012.67 1012.82 1013.03 1013.38 1013.52 1013.88 1014.54 1015.16 1015.72 1016.11 1016.61 1016.52 1016.84 1017.59 1017.96 1018.15
1019.03 1018.88 1018.64 1018.50 1018.59 1018.65 1018.67 1018.65 1018.61 1018.47 1018.29 1018.14 1017.96 1017.71 1017.41 1017.28 1015.11 1011.56 1010.97 1011.27 1011.85 1011.94 1012.14 1012.52 1012.68 1012.82 1012.80 1012.42 1012.16 1012.61 1012.94 1013.11 1013.50 1013.74 1014.10 1014.70 1015.23 1015.77 1016.05 1016.08 1016.34 1016.69 1017.37 1017.90 1018.19
1018.79 1018.70 1018.55 1018.48 1018.61 1018.65 1018.64 1018.60 1018.48 1018.35 1018.17 1018.04 1017.87 1017.64 1017.40 1016.78 1014.10 1011.51 1011.27 1011.49 1011.96 1011.98 1012.01 1012.59 1013.04 1013.19 1012.96 1012.54 1012.33 1012.66 1013.23 1013.52 1013.89 1014.07 1014.45 1014.90 1015.45 1015.79 1015.95 1016.37 1016.66 1017.19 1017.76 1018.06 1018.46
1018.54 1018.56 1018.56 1018.54 1018.59 1018.62 1018.61 1018.54 1018.35 1018.17 1018.05 1017.92 1017.84 1017.67 1017.51 1015.80 1012.02 1011.60 1011.49 1011.79 1011.92 1011.96 1012.10 1012.44 1012.76 1013.11 1013.36 1012.76 1012.62 1012.97 1013.25 1013.78 1014.03 1014.42 1014.66 1015.01 1015.74 1015.99 1016.14 1016.78 1017.23 1017.59 1018.01 1018.36 1018.58
1018.37 1018.36 1018.45 1018.46 1018.51 1018.53 1018.49 1018.42 1018.24 1018.06 1017.96 1017.77 1017.76 1017.65 1017.00 1013.91 1011.76 1011.75 1011.59 1011.47 1011.54 1011.71 1011.98 1012.32 1012.59 1013.02 1013.39 1013.12 1013.19 1013.21 1013.61 1014.09 1014.35 1014.61 1014.90 1015.14 1015.99 1016.00 1016.17 1016.93 1017.45 1017.88 1018.27 1018.62 1018.86
1018.27 1018.26 1018.32 1018.40 1018.41 1018.37 1018.25 1018.15 1017.96 1017.82 1017.71 1017.57 1017.59 1017.57 1015.63 1012.36 1011.92 1011.85 1011.42 1011.47 1011.54 1011.65 1011.65 1012.03 1012.48 1012.94 1013.20 1013.41 1013.50 1013.82 1013.86 1014.49 1014.49 1014.78 1015.23 1015.49 1015.60 1015.60 1016.34 1016.87 1017.46 1017.95 1018.39 1018.72 1019.02
1018.13 1018.07 1018.15 1018.24 1018.24 1018.19 1018.02 1017.86 1017.69 1017.57 1017.36 1017.36 1017.65 1017.30 1014.36 1011.96 1011.68 1011.00 1011.10 1011.28 1011.56 1011.92 1012.01 1012.30 1012.72 1013.38 1013.62 1013.57 1014.17 1014.36 1014.29 1014.56 1014.68 1014.90 1015.15 1015.59 1015.59 1015.85 1016.58 1017.05 1017.40 1017.85 1018.28 1018.77 1019.14
1018.06 1018.09 1018.24 1018.24 1018.23 1018.13 1017.84 1017.66 1017.35 1017.38 1017.00 1017.19 1017.08 1017.08 1013.46 1011.88 1011.06 1010.96 1011.04 1011.11 1011.54 1012.10 1012.22 1012.57 1013.26 1013.55 1013.78 1013.77 1014.16 1014.24 1014.53 1014.70 1014.94 1015.21 1015.40 1015.81 1015.57 1015.82 1016.47 1017.00 1017.06 1017.61 1018.06 1018.51 1018.82
1017.97 1018.05 1018.14 1018.12 1018.14 1018.10 1018.12 1017.64 1017.60 1017.43 1017.01 1015.78 1015.15 1014.36 1012.63 1011.77 1011.21 1011.31 1011.29 1011.25 1011.68 1012.38 1012.86 1013.10 1013.42 1013.60 1013.70 1013.84 1013.92 1014.10 1014.37 1014.99 1015.06 1015.29 1015.63 1015.75 1015.70 1015.47 1016.07 1016.57 1017.00 1017.36 1017.71 1018.05 1018.29
1017.87 1017.93 1017.95 1018.03 1018.10 1018.18 1018.40 1017.79 1016.49 1016.38 1015.78 1014.61 1014.39 1013.90 1012.60 1012.14 1011.79 1011.70 1011.45 1011.75 1012.15 1012.92 1013.41 1013.81 1013.58 1013.60 1013.70 1013.99 1014.29 1014.59 1014.98 1015.21 1015.32 1015.70 1016.05 1016.05 1015.53 1015.22 1015.76 1016.15 1016.45 1016.68 1017.18 1017.62 1018.29
1017.75 1017.81 1017.87 1018.06 1018.20 1018.32 1017.96 1016.76 1015.80 1015.98 1015.64 1014.02 1013.54 1012.67 1012.10 1012.17 1012.09 1011.94 1011.80 1012.02 1012.54 1013.14 1013.49 1013.66 1013.82 1013.59 1013.77 1014.22 1014.66 1015.05 1015.41 1015.65 1015.99 1016.25 1016.48 1016.52 1015.80 1015.54 1015.84 1016.13 1016.28 1016.50 1016.81 1017.32 1017.66
1017.58 1017.70 1017.89 1018.07 1018.75 1017.77 1017.05 1015.73 1015.78 1015.99 1015.28 1013.91 1012.67 1011.89 1011.82 1011.93 1012.31 1012.03 1011.99 1012.26 1012.82 1013.43 1013.68 1013.84 1013.67 1013.79 1014.17 1014.60 1014.90 1015.55 1015.79 1016.02 1016.42 1016.84 1017.29 1017.14 1016.82 1016.06 1016.15 1016.11 1016.27 1016.49 1016.82 1017.08 1017.43
1017.44 1017.59 1017.72 1018.03 1017.90 1017.32 1015.90 1015.63 1015.53 1015.68 1014.92 1013.66 1012.42 1011.49 1011.90 1012.33 1012.46 1012.37 1012.25 1012.27 1013.13 1013.51 1013.87 1014.40 1014.29 1014.39 1014.84 1015.16 1015.23 1016.09 1016.35 1016.89 1017.31 1017.68 1017.82 1017.86 1017.89 1016.14 1016.43 1016.40 1016.36 1016.64 1016.85 1017.15 1017.49
1017.29 1017.49 1017.73 1017.86 1017.77 1016.16 1015.64 1015.48 1015.40 1015.60 1014.35 1013.35 1012.49 1012.11 1012.43 1012.56 1012.79 1012.69 1012.64 1012.82 1013.21 1013.82 1014.17 1014.75 1014.75 1014.98 1015.36 1015.78 1015.86 1016.60 1017.14 1017.87 1018.32 1018.40 1018.47 1018.25 1018.19 1017.06 1017.22 1017.51 1017.03 1016.95 1017.14 1017.27 1017.61
1017.14 1017.25 1017.59 1017.10 1016.36 1015.79 1015.67 1015.39 1015.41 1014.49 1013.89 1013.44 1012.73 1012.53 1012.78 1013.18 1013.36 1013.40 1013.79 1014.08 1014.37 1014.79 1015.31 1015.37 1015.66 1015.64 1015.65 1016.24 1016.72 1017.02 1017.74 1018.42 1018.84 1018.90 1018.74 1018.63 1018.63 1017.46 1017.59 1017.75 1017.97 1017.82 1017.65 1017.68 1017.95
1016.98 1017.05 1017.01 1016.51 1015.60 1015.84 1015.95 1015.82 1015.00 1014.17 1013.58 1013.15 1013.03 1012.87 1013.06 1013.21 1013.89 1014.27 1014.62 1015.14 1015.38 1015.43 1016.35 1016.40 1016.68 1016.45 1016.49 1016.69 1017.04 1017.69 1017.99 1018.49 1018.82 1019.29 1019.13 1018.90 1018.30 1017.78 1017.90 1018.12 1018.27 1018.31 1018.30 1018.28 1018.56
1016.95 1017.32 1017.07 1015.63 1015.52 1015.89 1015.70 1015.26 1014.62 1013.99 1013.62 1013.36 1013.37 1013.49 1013.81 1013.92 1014.25 1014.75 1015.52 1016.18 1016.31 1016.21 1016.40 1016.86 1017.11 1017.06 1017.00 1017.05 1017.56 1018.28 1018.57 1018.88 1019.23 1020.04 1019.63 1018.75 1018.18 1017.81 1018.10 1018.45 1018.72 1018.82 1018.85 1019.20 1019.31
1016.88 1016.98 1016.11 1015.19 1015.31 1015.49 1015.41 1015.08 1014.46 1013.89 1013.58 1013.35 1013.47 1013.81 1014.03 1014.21 1014.62 1015.15 1016.00 1016.59 1016.75 1016.73 1016.68 1017.21 1017.59 1017.68 1017.61 1017.60 1018.08 1018.14 1018.76 1019.26 1019.56 1019.82 1019.59 1018.86 1018.51 1018.03 1018.53 1019.02 1019.42 1019.60 1019.75 1019.85 1019.82
1016.92 1016.65 1015.29 1015.09 1015.21 1015.47 1015.76 1015.19 1014.43 1013.87 1013.71 1013.56 1013.44 1013.68 1014.18 1014.53 1015.10 1015.69 1016.52 1017.19 1017.22 1017.30 1017.19 1017.54 1017.77 1018.48 1018.16 1018.28 1018.47 1019.02 1019.20 1019.86 1020.15 1020.27 1019.86 1019.58 1018.54 1018.52 1019.00 1019.59 1020.02 1020.38 1020.53 1020.54 1020.49
1016.90 1016.57 1015.19 1015.02 1015.70 1016.32 1015.85 1015.15 1014.52 1014.08 1013.74 1013.56 1013.61 1013.86 1014.32 1014.81 1015.54 1016.26 1017.06 1017.70 1017.90 1017.96 1018.06 1018.36 1018.54 1018.79 1018.89 1018.91 1018.94 1019.08 1019.40 1019.74 1020.30 1020.95 1020.99 1020.60 1019.17 1019.03 1019.51 1019.98 1020.31 1020.65 1020.85 1020.89 1020.94
1016.68 1016.24 1015.16 1015.01 1015.87 1016.20 1015.64 1015.14 1014.77 1014.41 1014.26 1013.93 1014.05 1014.18 1014.52 1015.35 1016.33 1017.05 1017.74 1018.37 1018.35 1018.41 1018.53 1018.60 1019.11 1019.36 1019.39 1019.56 1019.35 1019.47 1019.76 1020.22 1020.59 1020.86 1020.86 1020.58 1019.49 1019.61 1020.01 1020.35 1020.72 1020.90 1021.02 1020.97 1021.02
1016.86 1016.83 1016.31 1016.12 1016.13 1015.86 1015.76 1015.30 1015.03 1014.73 1014.56 1014.40 1014.50 1014.56 1015.04 1016.01 1016.63 1017.70 1018.38 1018.84 1018.84 1018.88 1018.94 1019.02 1019.82 1019.75 1019.78 1019.68 1019.73 1019.97 1020.11 1020.42 1020.63 1021.05 1020.68 1020.05 1019.59 1019.83 1020.24 1020.64 1021.00 1021.09 1021.08 1021.00 1020.96
1016.69 1016.78 1016.59 1016.66 1016.38 1015.96 1015.70 1015.47 1015.27 1015.08 1014.91 1014.85 1015.06 1015.20 1015.59 1016.58 1017.30 1018.12 1018.88 1019.36 1019.53 1019.50 1019.65 1019.85 1020.34 1020.43 1020.19 1020.11 1020.08 1020.04 1020.11 1020.35 1020.52 1020.24 1020.24 1019.67 1019.92 1019.99 1020.39 1020.81 1021.03 1021.13 1021.10 1021.00 1020.94
1016.20 1016.59 1016.74 1016.48 1016.13 1016.05 1015.84 1015.61 1015.31 1015.37 1015.34 1015.42 1015.61 1015.96 1016.22 1016.86 1017.42 1018.17 1018.82 1019.45 1019.57 1020.16 1020.36 1020.68 1021.01 1021.01 1020.84 1020.63 1020.49 1020.20 1019.86 1020.10 1020.25 1020.18 1020.08 1020.06 1020.19 1020.08 1020.40 1020.73 1020.99 1021.09 1021.23 1021.28 1021.26
1015.95 1015.89 1015.77 1016.54 1016.37 1016.18 1015.56 1015.23 1015.18 1015.37 1015.98 1016.00 1016.16 1016.70 1017.33 1017.72 1018.01 1018.54 1018.93 1019.30 1019.53 1020.25 1020.97 1021.23 1021.43 1021.75 1021.52 1021.10 1020.59 1020.16 1019.26 1019.48 1019.59 1019.76 1019.90 1020.12 1019.99 1020.29 1020.69 1020.91 1021.15 1021.38 1021.55 1021.52 1021.48
Thickness
5635 5635 5634 5634 5634 5635 5639 5642 5645 5647 5650 5656 5663 5670 5679 5688 5699 5710 5720 5743 5751 5758 5763 5768 5772 5772 5774 5768 5768 5764 5741 5731 5736 5734 5746 5748 5745 5742 5742 5740 5739 5738 5741 5744 5744
5625 5623 5623 5622 5621 5621 5623 5626 5629 5633 5638 5644 5653 5661 5670 5680 5690 5705 5735 5743 5747 5753 5755 5754 5754 5760 5758 5759 5758 5752 5738 5743 5750 5749 5748 5747 5748 5740 5737 5733 5731 5732 5734 5738 5738
5614 5612 5610 5608 5606 5605 5606 5608 5612 5616 5623 5630 5639 5649 5660 5670 5681 5714 5737 5740 5743 5749 5751 5751 5753 5752 5749 5755 5753 5747 5744 5750 5749 5752 5751 5745 5740 5740 5736 5727 5735 5733 5729 5731 5731
5603 5600 5597 5594 5590 5587 5587 5589 5593 5598 5604 5613 5624 5636 5648 5659 5670 5717 5730 5735 5737 5742 5745 5744 5743 5738 5738 5741 5753 5744 5746 5749 5747 5748 5747 5741 5740 5735 5734 5738 5737 5736 5731 5727 5726
5592 5588 5584 5580 5575 5572 5571 5573 5577 5582 5590 5599 5609 5623 5636 5647 5673 5712 5719 5725 5729 5735 5736 5734 5731 5730 5730 5740 5746 5741 5740 5742 5740 5740 5738 5738 5732 5733 5731 5729 5730 5727 5724 5721 5718
5584 5578 5571 5564 5557 5555 5555 5558 5564 5570 5578 5587 5597 5609 5623 5638 5688 5702 5711 5717 5722 5727 5729 5732 5731 5731 5726 5733 5738 5738 5736 5735 5737 5734 5733 5731 5725 5727 5727 5722 5720 5720 5717 5714 5713
5577 5568 5559 5549 5543 5541 5542 5545 5551 5559 5567 5578 5588 5600 5616 5647 5682 5693 5703 5711 5720 5724 5722 5729 5732 5727 5726 5723 5732 5732 5727 5727 5729 5729 5725 5727 5719 5717 5722 5717 5714 5712 5710 5706 5705
5569 5559 5548 5539 5535 5533 5534 5538 5545 5553 5562 5572 5583 5595 5616 5657 5675 5686 5698 5704 5714 5721 5725 5728 5730 5726 5723 5723 5720 5716 5718 5711 5721 5721 5718 5720 5714 5721 5713 5713 5709 5706 5702 5699 5696
5563 5553 5542 5534 5531 5530 5532 5536 5544 5551 5560 5569 5578 5590 5614 5657 5666 5686 5695 5696 5705 5711 5718 5723 5722 5713 5715 5707 5701 5700 5703 5702 5710 5714 5713 5713 5713 5713 5705 5705 5704 5701 5697 5692 5689
5560 5550 5539 5532 5529 5529 5532 5538 5547 5553 5563 5569 5580 5585 5626 5645 5668 5680 5691 5697 5697 5699 5704 5707 5702 5698 5698 5701 5688 5694 5694 5694 5699 5704 5703 5699 5706 5709 5703 5700 5702 5697 5692 5688 5686
5560 5550 5541 5534 5530 5530 5535 5543 5549 5555 5562 5580 5595 5607 5633 5649 5667 5672 5683 5689 5693 5688 5683 5692 5690 5687 5698 5699 5702 5699 5695 5691 5698 5700 5698 5694 5698 5707 5702 5696 5694 5692 5690 5687 5684
5563 5554 5546 5539 5535 5535 5537 5545 5560 5567 5572 5593 5600 5613 5634 5647 5651 5665 5682 5676 5679 5670 5676 5676 5681 5691 5695 5694 5694 5691 5687 5687 5690 5690 5688 5686 5697 5706 5698 5694 5693 5693 5688 5684 5677
5568 5561 5553 5545 5541 5541 5546 5559 5571 5575 5577 5602 5610 5624 5638 5648 5647 5659 5673 5674 5670 5667 5671 5672 5681 5690 5692 5686 5685 5682 5678 5678 5680 5679 5678 5675 5687 5693 5691 5689 5689 5688 5685 5680 5676
5575 5568 5561 5555 5549 5555 5562 5576 5580 5584 5582 5603 5620 5630 5642 5647 5645 5666 5672 5673 5668 5660 5668 5673 5684 5685 5682 5680 5682 5672 5679 5680 5675 5669 5663 5668 5662 5679 5679 5683 5682 5680 5675 5674 5671
5581 5576 5571 5566 5566 5571 5584 5587 5592 5595 5575 5612 5622 5646 5642 5642 5650 5657 5670 5673 5661 5663 5669 5665 5671 5673 5672 5673 5681 5671 5670 5665 5660 5653 5654 5653 5650 5675 5670 5673 5676 5673 5670 5665 5663
5588 5584 5578 5576 5575 5589 5594 5598 5600 5590 5588 5612 5624 5628 5633 5640 5645 5657 5662 5669 5670 5662 5664 5660 5669 5668 5666 5664 5669 5663 5658 5646 5640 5640 5639 5643 5644 5659 5656 5656 5663 5666 5662 5660 5656
5594 5591 5585 5587 5595 5599 5601 5603 5590 5592 5616 5612 5623 5632 5633 5633 5640 5647 5645 5643 5648 5644 5648 5653 5652 5660 5665 5658 5660 5657 5648 5638 5638 5636 5639 5633 5632 5652 5649 5650 5648 5649 5651 5653 5649
5598 5596 5595 5597 5607 5605 5602 5599 5596 5610 5616 5625 5626 5632 5632 5640 5637 5639 5640 5637 5639 5642 5631 5637 5638 5648 5654 5654 5651 5645 5646 5637 5632 5630 5630 5623 5631 5644 5643 5642 5640 5640 5641 5640 5637
5600 5598 5599 5609 5611 5609 5611 5600 5606 5616 5622 5623 5627 5623 5625 5633 5637 5634 5631 5630 5634 5638 5641 5634 5636 5644 5647 5649 5648 5638 5635 5632 5617 5601 5612 5623 5632 5641 5637 5635 5632 5630 5630 5625 5623
5601 5600 5609 5615 5615 5614 5609 5608 5615 5623 5627 5630 5625 5626 5622 5631 5634 5636 5632 5630 5634 5637 5639 5635 5630 5635 5639 5643 5637 5640 5632 5627 5615 5617 5615 5619 5617 5633 5629 5626 5619 5618 5615 5612 5611
5601 5605 5616 5619 5619 5612 5606 5609 5621 5629 5630 5632 5631 5630 5629 5631 5631 5631 5629 5627 5631 5633 5636 5632 5633 5627 5633 5630 5629 5624 5622 5609 5610 5604 5615 5612 5625 5619 5618 5612 5608 5603 5600 5598 5596
5600 5603 5618 5621 5610 5587 5608 5617 5624 5629 5633 5635 5636 5636 5634 5633 5630 5629 5626 5624 5622 5625 5629 5622 5619 5618 5622 5620 5622 5621 5618 5614 5613 5603 5581 5587 5612 5612 5606 5600 5598 5593 5589 5586 5582
5604 5605 5617 5621 5607 5606 5613 5621 5622 5628 5627 5633 5632 5634 5634 5628 5627 5621 5618 5615 5618 5622 5623 5621 5611 5609 5616 5615 5615 5614 5609 5598 5591 5586 5586 5597 5612 5597 5593 5591 5585 5583 5579 5575 5571
5600 5604 5607 5604 5599 5613 5615 5620 5621 5624 5626 5629 5630 5633 5631 5624 5617 5613 5612 5611 5613 5616 5618 5615 5599 5609 5611 5614 5608 5607 5604 5596 5597 5590 5590 5596 5599 5594 5586 5580 5575 5571 5567 5564 5561
5595 5605 5604 5603 5608 5609 5613 5616 5617 5621 5624 5625 5626 5628 5626 5618 5617 5610 5606 5605 5606 5609 5605 5607 5605 5599 5601 5600 5600 5603 5605 5593 5593 5592 5597 5598 5585 5585 5578 5569 5566 5560 5556 5555 5552
5601 5601 5590 5596 5604 5608 5609 5611 5616 5617 5622 5622 5621 5621 5622 5618 5621 5610 5608 5606 5612 5603 5601 5592 5596 5594 5599 5592 5591 5595 5595 5590 5585 5585 5581 5576 5577 5574 5567 5562 5558 5554 5548 5543 5537
5593 5597 5605 5591 5597 5604 5609 5615 5617 5616 5614 5616 5618 5612 5611 5612 5611 5602 5599 5597 5604 5602 5595 5594 5587 5588 5597 5577 5585 5595 5597 5587 5587 5580 5580 5576 5576 5564 5558 5554 5550 5542 5533 5528 5523